This is the latest recevied weather packets stored in our database for station/object N3LF. If no packets are shown the sender has not sent any weather packets the latest 10 day(s).
| Time | Temp. | Humidity | Pressure | Rain* | Wind** | Luminosity | Snow |
|---|---|---|---|---|---|---|---|
| 1777935757 | 26.67° C | 42% | 1012.3 hPa | 0 mm | - | 77 W/m² | - |
| 1777935456 | 27.22° C | 42% | 1012.1 hPa | 0 mm | - | 149 W/m² | - |
| 1777935151 | 27.22° C | 40% | 1012.1 hPa | 0 mm | - | 154 W/m² | - |
| 1777934849 | 27.22° C | 41% | 1012.2 hPa | 0 mm | - | 170 W/m² | - |
| 1777934546 | 26.67° C | 40% | 1012.2 hPa | 0 mm | - | 186 W/m² | - |
| 1777934242 | 26.67° C | 40% | 1012.3 hPa | 0 mm | - | 204 W/m² | - |
| 1777933937 | 26.67° C | 39% | 1012.3 hPa | 0 mm | - | 205 W/m² | - |
| 1777933635 | 26.67° C | 40% | 1012.2 hPa | 0 mm | - | 230 W/m² | - |
| 1777933332 | 27.22° C | 39% | 1012.3 hPa | 0 mm | - | 252 W/m² | - |
| 1777933029 | 26.67° C | 40% | 1012.3 hPa | 0 mm | - | 259 W/m² | - |
| 1777932726 | 26.67° C | 39% | 1012.4 hPa | 0 mm | - | 272 W/m² | - |
| 1777932422 | 27.22° C | 39% | 1012.3 hPa | 0 mm | - | 285 W/m² | - |
| 1777932120 | 27.22° C | 40% | 1012.3 hPa | 0 mm | - | 299 W/m² | - |
| 1777931816 | 26.67° C | 39% | 1012.4 hPa | 0 mm | - | 318 W/m² | - |
| 1777931514 | 26.67° C | 40% | 1012.1 hPa | 0 mm | - | 328 W/m² | - |
| 1777931209 | 26.67° C | 40% | 1012.1 hPa | 0 mm | - | 332 W/m² | - |
| 1777930906 | 27.22° C | 40% | 1012.1 hPa | 0 mm | - | 350 W/m² | - |
| 1777930603 | 26.67° C | 39% | 1012 hPa | 0 mm | - | 377 W/m² | - |
| 1777930299 | 26.11° C | 44% | 1012 hPa | 0 mm | - | 388 W/m² | - |
| 1777929996 | 26.67° C | 42% | 1012 hPa | 0 mm | - | 84 W/m² | - |
| 1777929693 | 27.78° C | 41% | 1012 hPa | 0 mm | - | 411 W/m² | - |
| 1777929390 | 27.22° C | 40% | 1012.2 hPa | 0 mm | - | 124 W/m² | - |
| 1777929086 | 27.22° C | 40% | 1012.1 hPa | 0 mm | - | 434 W/m² | - |
| 1777928784 | 27.22° C | 41% | 1012.1 hPa | 0 mm | - | 447 W/m² | - |
| 1777928480 | 27.22° C | 39% | 1012.1 hPa | 0 mm | - | 466 W/m² | - |
* Rain latest hour (hover to see other rain measurements)
** Current wind speed in m/s (hover to see current wind gust speed)